Regional Weather Roundup
Issued by NWS Charleston, SC

Current Version | Previous Version | Text Only | Print | Product List | Glossary Off
Versions: 1 2 3 4 5 6 7 8 9 10 11 12 13 14 15 16 17 18 19 20 21 22 23 24 25 26 27 28 29 30 31 32 33 34 35 36 37 38 39 40 41 42 43 44 45 46 47 48 49 50

000
ASUS42 KCHS 090527
RWRCHS

REGIONAL WEATHER ROUNDUP
NATIONAL WEATHER SERVICE CHARLESTON SC
1200 AM EST TUE FEB 09 2016

NOTE: "FAIR" INDICATES FEW OR NO CLOUDS BELOW 12,000 FEET WITH NO
SIGNIFICANT WEATHER AND/OR OBSTRUCTIONS TO VISIBILITY.

NOT ALL STATIONS ARE QUALITY CONTROLLED BY THE NATIONAL
WEATHER SERVICE. USE DATA WITH CAUTION...ESPECIALLY
DEWPOINT OBSERVATIONS.

NOTICE: OBSERVATIONS FOR THE SAVANNAH-HILTON HEAD INTERNATIONAL AIRPORT
/KSAV/ HAVE BEEN TEMPORARILY REMOVED DUE TO AN ERRONEOUS TEMPERATURE
SENSOR. THE OBSERVATION WILL BE REINTRODUCED ONCE REPAIRS ARE COMPLETE.

SCZ027-030-031-034>040-042>050-090600-
...SOUTHEAST SOUTH CAROLINA...

CITY           SKY/WX    TMP DP  RH WIND       PRES   REMARKS
N CHARLESTON   CLOUDY    45  40  82 W9        29.73S
WATERFRONT PRK   N/A     46  44  93 VRB3      29.57R
MOUNT PLEASANT FAIR      46  41  81 W10G16    29.73R
JOHNS ISLAND   FAIR      45  41  87 W10       29.74R
PINOPOLIS        N/A     46  43  87 W14       29.64R
MONCKS CORNER  FAIR      41  34  75 CALM      29.71F
SUMMERVILLE    FAIR      43  39  87 W6        29.74S
BEAUFORT MCAS  CLEAR     45  36  70 W10G20    29.77R
BEAUFORT ARPT  FAIR      45  36  70 W10       29.76S
HILTON HEAD IS PTCLDY    46  37  71 W7        29.79R
WALTERBORO     CLEAR     43  37  81 W9        29.75F
ALLENDALE      FAIR      39  37  93 CALM      29.76S

...SOUTHERN MIDLANDS AND PEE DEE...

CITY           SKY/WX    TMP DP  RH WIND       PRES   REMARKS
GEORGETOWN     NOT AVBL
KINGSTREE      NOT AVBL
ORANGEBURG     CLEAR     41  30  65 W9        29.73F
BARNWELL       FAIR      41  30  65 CALM      29.76S
AIKEN          FAIR      37  23  56 W8        29.76F WCI  31
MANNING        FAIR      43  30  61 W7        29.70F
COLUMBIA       CLEAR     37  27  67 SW6       29.71S WCI  32
SUMTER         CLEAR     40  31  71 W9        29.67F WCI  34
FLORENCE       CLEAR     42  38  85 W13       29.65F
MYRTLE BEACH   CLOUDY    46  37  71 W8        29.69S
N MYRTLE BEACH CLOUDY    47  41  80 W7        29.65F

$$

GAZ063-065-086>088-099>101-113>116-118-119-134>141-150-090600-
...SOUTHEAST GEORGIA...

CITY           SKY/WX    TMP DP  RH WIND       PRES   REMARKS
SAVANNAH ARPT  PTCLDY    43  36  76 W8        29.80R
HUNTER AAF     NOT AVBL
FORT STEWART   CLEAR     43  39  86 W5        29.79R
STATESBORO     CLEAR     44  31  60 W6        29.80R
SYLVANIA       CLEAR     39  37  93 NW3       29.79S
CLAXTON        FAIR      40  38  92 SW5       29.81R WCI  36

...CSRA...CENTRAL AND FAR SOUTHEAST GEORGIA...

CITY           SKY/WX    TMP DP  RH WIND       PRES   REMARKS
THOMSON        PTCLDY    42  28  59 W7        29.82S
AUGUSTA-BUSH   CLEAR     42  24  49 W9        29.77S
AUGUSTA-DANIEL CLEAR     43  22  43 W10       29.76S
SWAINSBORO     FAIR      36  32  87 W3        29.81S
VIDALIA        CLEAR     41  32  70 W5        29.82S
EASTMAN        FAIR      44  26  49 NW8       29.87R
HAZLEHURST     FAIR      40  35  80 W3        29.84R
ALMA           CLEAR     42  33  70 W5        29.84R
WAYCROSS       PTCLDY    46  36  69 W7        29.85S
JESUP          FAIR      45  39  81 W3        29.84R
BAXLEY         FAIR      43  34  70 W6        29.84R
BRUNSWICK      CLOUDY    46  43  87 W7        29.84S
SAINT SIMONS   CLOUDY    48  44  86 W8        29.83R

$$

SCZ027-028-034-036>038-045-046-048>050-GAZ119-141-090600-
...LAKE AND SUPPLEMENTAL COASTAL OBSERVATIONS...

STATION/POSITION TIME  TEMP    WIND        PRES    WAVE   SWELL
                       AIR SEA DIR/SP/G            HT/PER HT/PER/DIR
                 (UTC) (F)     (DEG/KT/KT) (MB)    (FT/S) (FT/S/D)
WINYAH BAY       0400   45     250/  5     1004.0
LAKE MURRAY      0400   44     270/ 10/ 14 1005.4S
ACE BASIN NERRS  0445   44     290/  4     1007.0S
FORT PULASKI     0500   47 52  280/ 13/ 15 1008.8R
SAPELO ISLAND    0500   48     250/  9     1009.0S

$$

ANZ835-935-AMZ111-154-330-350-352-354-370-450-454-472-090600-
...C-MAN AND BUOY OBSERVATIONS...

STATION/POSITION TIME  TEMP    WIND        PRES    WAVE   SWELL
                       AIR SEA DIR/SP/G            HT/PER HT/PER/DIR
                 (UTC) (F)     (DEG/KT/KT) (MB)    (FT/S) (FT/S/D)
BUOY 41004       0450   52 65  270/ 14/ 17 1006.0F   7/ 7   5/ 7
BUOY 41008       0450   51 55  270/ 16/ 17 1009.1F   3/ 6   2/180/ 7
FOLLY BEACH CMAN 0500   45     270/  7/ 11 1006.8R
CAPERS NEARSHORE 0408   49     270/ 10/ 12 1005.8F
FRIPP NEARSHORE  0400   49     290/ 14/ 16 1007.0


STATION/POSITION TIME  TEMP    WIND        PRES    WAVE   SWELL
                       AIR SEA DIR/SP/G            HT/PER HT/PER/DIR
                 (UTC) (F)     (DEG/KT/KT) (MB)    (FT/S) (FT/S/D)
5E ST. MARYS GA  0421      56                N/A     3/15   2/100/15
FRYING PAN BUOY  0500   50 61  280/ 23/ 29 1004.8R
BUOY 41025       0450   50 74  310/ 25/ 29 1002.4F  11/14  10/ 90/14
CAPE LOOKOUT NC  NOT AVBL
BUOY 41002       0450   64 69  240/ 25/ 35   N/A    12/14   8/14
BUOY 41010       0420   68 73              1009.7F
ST AUGUSTINE FL  0500   53 57  320/ 11/ 14 1011.8R


$$



USA.gov is the U.S. government's official web portal to all federal, state and local government web resources and services.